CAPE
0 0 0 0 0 0 0 0 0 0 0 0 0 0 0 0 0 0 0 0 0 0 0 0 0 0 0 0 0 0 0 0 0 0 0 0 0 0 0 0 0 0 0 0
0 0 0 0 0 0 0 0 0 0 0 0 0 0 0 0 0 0 0 0 0 0 0 0 0 0 0 0 0 0 0 0 0 0 0 0 0 0 0 0 0 0 0 0
0 0 0 0 0 0 0 0 0 0 0 0 0 0 0 0 0 0 0 0 0 0 0 0 0 0 0 0 0 0 0 0 0 0 0 0 0 0 0 0 0 0 0 0
0 0 0 0 0 0 0 0 0 0 0 0 0 0 0 0 0 0 0 0 0 0 0 0 0 0 0 0 0 0 0 0 0 0 0 0 0 0 0 0 0 0 0 0
0 0 0 0 0 0 0 0 0 0 0 0 0 0 0 0 0 0 0 0 0 0 0 0 0 0 0 0 0 0 0 0 0 0 0 0 0 0 0 0 0 0 0 0
0 0 0 0 0 0 0 0 0 0 0 0 0 0 0 0 0 0 0 0 0 0 0 0 0 0 0 0 0 0 0 0 0 0 0 0 0 0 0 0 0 0 0 0
0 0 0 0 0 0 0 0 0 0 0 0 0 0 0 0 0 0 0 0 0 0 0 0 0 0 0 0 0 0 0 0 0 0 0 0 0 0 0 0 0 0 0 0
0 0 0 0 0 0 0 0 0 0 0 0 0 0 0 0 0 0 0 0 0 0 0 0 0 0 0 0 0 0 0 0 0 0 0 0 0 0 0 0 0 0 0 0
0 0 0 0 0 0 0 0 0 0 0 0 0 0 0 0 0 0 0 0 0 0 0 0 0 0 0 0 0 0 0 0 0 0 0 0 0 0 0 0 0 0 0 0
0 0 0 0 0 0 0 0 0 0 0 0 0 0 0 0 0 0 0 0 0 0 0 0 0 0 0 0 0 0 0 0 0 0 0 0 0 0 0 0 0 0 0 0
0 0 0 0 0 0 0 0 0 0 0 0 0 0 0 0 0 0 0 0 0 0 0 0 0 0 0 0 0 0 0 0 0 0 0 0 0 0 0 0 0 0 0 0
0 0 0 0 0 0 0 0 0 0 0 0 0 0 0 0 0 0 0 0 0 0 0 0 0 0 0 0 0 0 0 0 0 0 0 0 0 0 0 0 0 0 0 0
0 0 0 0 0 0 0 0 0 0 0 0 0 0 0 0 0 0 0 0 0 0 0 0 0 0 0 0 0 0 0 0 0 0 0 0 0 0 0 0 0 0 0 0
0 0 0 0 0 0 0 0 0 0 0 0 0 0 0 0 0 0 0 0 0 0 0 0 0 0 0 0 0 0 0 0 0 0 0 0 0 0 0 0 0 0 0 0
0 0 0 0 0 0 0 0 0 0 0 0 0 0 0 0 0 0 0 0 0 0 0 0 0 0 0 0 0 0 0 0 0 0 0 0 0 0 0 0 0 0 6 1
0 0 0 0 0 0 0 0 0 0 0 0 0 0 0 0 0 0 0 0 0 0 0 0 0 0 0 0 0 0 0 0 0 0 0 0 0 0 0 0 0 2 3 7
0 0 0 0 0 0 0 0 0 0 0 0 0 0 0 0 0 0 0 0 0 0 0 0 0 0 0 0 0 0 0 0 0 0 0 0 0 0 0 4 4 0 1 0
0 0 0 0 0 0 0 0 0 0 0 0 0 0 0 0 0 0 0 0 0 0 0 0 0 0 0 0 0 0 0 0 0 0 0 0 0 0 2 2 0 0 3 2
0 0 0 0 0 0 0 0 0 0 0 0 0 0 0 0 0 0 0 0 0 0 0 0 0 0 0 0 0 0 0 0 0 0 0 0 0 2 0 0 0 1 3 3
0 0 0 0 0 0 0 0 0 0 0 0 0 0 0 0 0 0 0 0 0 0 0 0 0 0 0 0 0 0 0 0 0 0 0 0 1 0 0 1 3 1 2 3
0 0 0 0 0 0 0 0 0 0 0 0 0 0 0 0 0 0 0 0 0 0 0 0 0 0 0 0 0 0 0 0 0 0 0 0 1 0 1 1 4 2 3 7
0 0 0 0 0 0 0 0 0 0 0 0 0 0 0 0 0 0 0 0 0 0 0 0 0 0 0 0 0 0 0 0 0 0 0 1 1 2 2 1 3 5 5 6
0 0 0 0 0 0 0 0 0 0 0 0 0 0 0 0 0 0 0 0 0 0 0 0 0 0 0 0 0 0 0 0 0 0 1 1 0 0 0 9 6 5 5 4
0 0 0 0 0 0 0 0 0 0 0 0 0 0 0 0 0 0 0 0 0 0 0 0 0 0 0 0 0 0 0 0 0 1 1 2 1 8 11 8 6 5 3 3
0 0 0 0 0 0 0 0 0 0 0 0 0 0 0 0 0 0 0 0 0 0 0 0 0 0 0 0 0 0 0 0 0 3 3 2 2 11 5 5 5 6 3 15
0 0 0 0 0 0 0 0 0 0 0 0 0 0 0 0 0 0 0 0 0 0 0 0 0 0 0 0 0 0 0 0 0 8 3 5 11 5 5 4 1 5 38 49
CIN
-0 -0 -0 -0 -0 -0 -0 -0 -0 -0 -0 -0 -0 -0 -0 -0 -0 -0 -0 -0 -0 -0 -0 -0 -0 -0 -0 -0 -0 -0 -0 -0 -0 -0 -0 -0 -0 -0 -0 -0 -0 -0 -0 -0
-0 -0 -0 -0 -0 -0 -0 -0 -0 -0 -0 -0 -0 -0 -0 -0 -0 -0 -0 -0 -0 -0 -0 -0 -0 -0 -0 -0 -0 -0 -0 -0 -0 -0 -0 -0 -0 -0 -0 -0 -0 -0 -0 -0
-0 -0 -0 -0 -0 -0 -0 -0 -0 -0 -0 -0 -0 -0 -0 -0 -0 -0 -0 -0 -0 -0 -0 -0 -0 -0 -0 -0 -0 -0 -0 -0 -0 -0 -0 -0 -0 -0 -0 -0 -0 -0 -0 -0
-0 -0 -0 -0 -0 -0 -0 -0 -0 -0 -0 -0 -0 -0 -0 -0 -0 -0 -0 -0 -0 -0 -0 -0 -0 -0 -0 -0 -0 -0 -0 -0 -0 -0 -0 -0 -0 -0 -0 -0 -0 -0 -0 -0
-0 -0 -0 -0 -0 -0 -0 -0 -0 -0 -0 -0 -0 -0 -0 -0 -0 -0 -0 -0 -0 -0 -0 -0 -0 -0 -0 -0 -0 -0 -0 -0 -0 -0 -0 -0 -0 -0 -0 -0 -0 -0 -0 -0
-0 -0 -0 -0 -0 -0 -0 -0 -0 -0 -0 -0 -0 -0 -0 -0 -0 -0 -0 -0 -0 -0 -0 -0 -0 -0 -0 -0 -0 -0 -0 -0 -0 -0 -0 -0 -0 -0 -0 -0 -0 -0 -0 -0
-0 -0 -0 -0 -0 -0 -0 -0 -0 -0 -0 -0 -0 -0 -0 -0 -0 -0 -0 -0 -0 -0 -0 -0 -0 -0 -0 -0 -0 -0 -0 -0 -0 -0 -0 -0 -0 -0 -0 -0 -0 -0 -0 -0
-0 -0 -0 -0 -0 -0 -0 -0 -0 -0 -0 -0 -0 -0 -0 -0 -0 -0 -0 -0 -0 -0 -0 -0 -0 -0 -0 -0 -0 -0 -0 -0 -0 -0 -0 -0 -0 -0 -0 -0 -0 -0 -0 -0
-0 -0 -0 -0 -0 -0 -0 -0 -0 -0 -0 -0 -0 -0 -0 -0 -0 -0 -0 -0 -0 -0 -0 -0 -0 -0 -0 -0 -0 -0 -0 -0 -0 -0 -0 -0 -0 -0 -0 -0 -0 -0 -0 -0
-0 -0 -0 -0 -0 -0 -0 -0 -0 -0 -0 -0 -0 -0 -0 -0 -0 -0 -0 -0 -0 -0 -0 -0 -0 -0 -0 -0 -0 -0 -0 -0 -0 -0 -0 -0 -0 -0 -0 -0 -0 -0 -0 -0
-0 -0 -0 -0 -0 -0 -0 -0 -0 -0 -0 -0 -0 -0 -0 -0 -0 -0 -0 -0 -0 -0 -0 -0 -0 -0 -0 -0 -0 -0 -0 -0 -0 -0 -0 -0 -0 -0 -0 -0 -0 -0 -0 -0
-0 -0 -0 -0 -0 -0 -0 -0 -0 -0 -0 -0 -0 -0 -0 -0 -0 -0 -0 -0 -0 -0 -0 -0 -0 -0 -0 -0 -0 -0 -0 -0 -0 -0 -0 -0 -0 -0 -0 -0 -0 -0 -0 -0
-0 -0 -0 -0 -0 -0 -0 -0 -0 -0 -0 -0 -0 -0 -0 -0 -0 -0 -0 -0 -0 -0 -0 -0 -0 -0 -0 -0 -0 -0 -0 -0 -0 -0 -0 -0 -0 -0 -0 -0 -0 -0 -0 -0
-0 -0 -0 -0 -0 -0 -0 -0 -0 -0 -0 -0 -0 -0 -0 -0 -0 -0 -0 -0 -0 -0 -0 -0 -0 -0 -0 -0 -0 -0 -0 -0 -0 -0 -0 -0 -0 -0 -0 -0 -0 -0 -0 -0
-0 -0 -0 -0 -0 -0 -0 -0 -0 -0 -0 -0 -0 -0 -0 -0 -0 -0 -0 -0 -0 -0 -0 -0 -0 -0 -0 -0 -0 -0 -0 -0 -0 -0 -0 -0 -0 -0 -0 -0 -0 -0 -1 -1
-0 -0 -0 -0 -0 -0 -0 -0 -0 -0 -0 -0 -0 -0 -0 -0 -0 -0 -0 -0 -0 -0 -0 -0 -0 -0 -0 -0 -0 -0 -0 -0 -0 -0 -0 -0 -0 -0 -0 -0 -6 -0 -1 -1
-0 -0 -0 -0 -0 -0 -0 -0 -0 -0 -0 -0 -0 -0 -0 -0 -0 -0 -0 -0 -0 -0 -0 -0 -0 -0 -0 -0 -0 -0 -0 -0 -0 -0 -0 -0 -0 -0 -0 -1 -3 -2 -0 -0
-0 -0 -0 -0 -0 -0 -0 -0 -0 -0 -0 -0 -0 -0 -0 -0 -0 -0 -0 -0 -0 -0 -0 -0 -0 -0 -0 -0 -0 -0 -0 -0 -0 -0 -0 -0 -0 -0 -1 -1 -0 -0 -0 -2
-0 -0 -0 -0 -0 -0 -0 -0 -0 -0 -0 -0 -0 -0 -0 -0 -0 -0 -0 -0 -0 -0 -0 -0 -0 -0 -0 -0 -0 -0 -0 -0 -0 -0 -0 -0 -0 -0 -2 -0 -0 -1 -1 -1
-0 -0 -0 -0 -0 -0 -0 -0 -0 -0 -0 -0 -0 -0 -0 -0 -0 -0 -0 -0 -0 -0 -0 -0 -0 -0 -0 -0 -0 -0 -0 -0 -0 -0 -0 -0 -0 -5 -0 -1 -1 -1 -1 -0
-0 -0 -0 -0 -0 -0 -0 -0 -0 -0 -0 -0 -0 -0 -0 -0 -0 -0 -0 -0 -0 -0 -0 -0 -0 -0 -0 -0 -0 -0 -0 -0 -0 -0 -0 -6 -1 -3 -1 -1 -1 -1 -0 -0
-0 -0 -0 -0 -0 -0 -0 -0 -0 -0 -0 -0 -0 -0 -0 -0 -0 -0 -0 -0 -0 -0 -0 -0 -0 -0 -0 -0 -0 -0 -0 -0 -0 -0 -0 -5 -2 -1 -0 -1 -0 -0 -0 -0
-0 -0 -0 -0 -0 -0 -0 -0 -0 -0 -0 -0 -0 -0 -0 -0 -0 -0 -0 -0 -0 -0 -0 -0 -0 -0 -0 -0 -0 -0 -0 -0 -0 -0 -3 -5 -2 -1 -0 -0 -0 -0 -0 -0
-0 -0 -0 -0 -0 -0 -0 -0 -0 -0 -0 -0 -0 -0 -0 -0 -0 -0 -0 -0 -0 -0 -0 -0 -0 -0 -0 -0 -0 -0 -0 -0 -0 -6 -6 -1 -1 -0 -0 -0 -0 -0 -0 -0
-0 -0 -0 -0 -0 -0 -0 -0 -0 -0 -0 -0 -0 -0 -0 -0 -0 -0 -0 -0 -0 -0 -0 -0 -0 -0 -0 -0 -0 -0 -0 -0 -0 -3 -1 -1 -0 -0 -0 -0 -0 -0 -0 -0
-0 -0 -0 -0 -0 -0 -0 -0 -0 -0 -0 -0 -0 -0 -0 -0 -0 -0 -0 -0 -0 -0 -0 -0 -0 -0 -0 -0 -0 -0 -0 -0 -0 -0 -0 -0 -0 -0 -0 -0 -0 -0 -0 -0
Wind_Speed
2 5 4 5 6 5 2 1 4 2 3 5 8 8 10 12 7 9 9 10 9 10 8 8 7 7 5 3 5 6 6 2 2 1 1 1 3 3 3 5 7 7 6 7
5 2 3 3 3 3 3 3 6 3 2 1 6 13 11 15 15 14 10 9 10 7 8 7 8 7 5 5 4 4 4 2 0 1 1 0 1 3 3 4 5 6 7 7
6 1 2 1 1 2 3 1 3 2 2 4 3 9 6 2 5 7 6 7 7 13 11 9 9 9 6 5 5 5 3 1 2 4 2 3 3 3 3 3 4 4 7 7
2 2 2 1 2 1 2 1 2 4 5 3 3 7 7 4 5 8 8 7 8 9 7 7 6 6 7 4 3 4 3 3 3 3 2 3 2 3 4 3 3 5 7 7
5 3 2 2 1 2 4 1 1 1 1 4 4 2 8 7 4 8 9 9 8 9 10 10 10 9 7 6 6 3 2 3 4 4 4 2 4 4 3 4 7 6 6 7
4 2 2 2 2 3 3 2 3 2 3 2 7 8 6 5 7 6 6 9 10 8 8 7 7 7 4 4 4 3 1 4 5 5 6 5 6 7 5 4 4 5 4 4
3 2 2 2 1 2 3 5 4 3 2 7 4 5 8 2 3 5 13 11 10 9 8 8 8 6 5 6 4 3 4 6 6 6 6 6 6 5 5 5 4 6 4 4
4 2 2 1 1 3 4 6 5 4 3 4 6 5 3 2 5 7 7 9 8 7 7 8 8 6 7 6 5 4 4 5 6 6 6 5 5 3 4 4 5 4 4 5
3 2 1 4 2 2 1 2 4 1 2 2 4 1 3 4 4 6 8 8 7 7 7 8 7 7 7 5 6 5 5 5 5 5 4 5 5 6 5 7 6 5 6 7
1 0 2 1 2 1 2 2 3 3 2 4 5 1 2 4 4 3 6 7 7 6 7 7 7 7 5 5 4 3 2 3 3 5 4 4 6 6 7 6 7 7 7 9
2 3 2 2 4 5 1 2 2 3 6 5 1 7 5 1 1 4 2 5 8 9 9 8 8 3 3 1 3 3 4 4 6 6 5 6 6 7 7 6 7 9 8 6
0 4 3 5 1 1 1 3 5 6 5 1 5 7 2 8 7 7 5 4 3 5 2 7 3 3 3 3 3 4 5 5 5 5 5 7 7 6 6 6 9 7 11 11
2 1 3 4 4 2 1 3 3 5 4 4 5 7 3 4 4 1 1 5 6 4 4 2 3 2 2 2 4 5 5 6 6 6 7 7 6 7 9 6 9 14 15 15
2 1 5 6 4 3 2 3 1 5 4 3 7 4 7 5 3 4 2 2 2 2 1 1 0 2 3 4 6 6 7 6 7 7 7 7 7 7 6 11 12 15 15 16
3 2 2 4 6 4 5 8 7 8 7 5 4 8 7 5 2 1 1 5 4 5 6 1 1 3 5 6 7 6 6 7 6 7 7 7 6 9 14 14 14 15 16 17
1 2 3 5 4 3 5 9 8 6 6 8 7 9 2 2 3 7 6 5 6 7 2 3 4 6 6 7 6 6 6 6 5 6 10 8 10 14 15 14 16 18 17 18
4 2 3 5 6 6 6 4 2 4 3 2 2 5 4 6 7 5 7 7 8 4 4 5 5 5 5 5 6 7 6 5 6 7 9 10 12 16 15 16 18 19 18 18
2 3 3 3 5 2 4 4 6 3 7 7 6 7 5 3 4 4 3 2 1 2 3 4 3 3 4 5 6 6 6 7 7 8 9 9 14 16 17 19 19 19 17 18
2 3 1 3 2 8 1 4 3 3 2 3 3 6 5 7 4 5 2 3 5 2 2 2 0 2 4 6 7 6 7 7 7 8 10 14 15 17 19 19 20 18 17 17
4 5 5 2 4 6 4 2 1 3 4 2 2 4 5 6 8 5 6 7 6 5 2 2 3 3 5 6 6 7 7 6 7 10 13 15 17 18 19 20 19 17 18 19
2 2 5 2 3 8 6 3 0 4 7 6 4 4 4 3 6 7 8 7 3 2 3 3 4 4 6 7 6 6 6 8 10 12 14 16 18 18 19 18 18 17 17 17
7 7 5 2 1 7 5 1 1 5 4 3 4 4 6 8 9 8 8 7 2 3 3 4 4 5 6 6 6 6 7 9 11 13 15 17 18 16 15 18 16 17 16 16
1 8 6 10 8 5 3 7 1 2 3 5 5 7 8 8 8 7 7 2 2 3 2 2 3 5 6 6 5 7 10 10 11 14 17 17 18 17 16 16 17 14 14 13
4 2 2 4 3 4 5 3 2 1 3 6 5 6 6 8 8 8 5 0 2 3 4 3 5 6 6 6 7 8 10 9 12 15 17 16 17 19 16 13 11 11 11 12
6 2 3 4 3 2 4 4 4 7 8 9 8 5 7 7 7 7 1 2 3 3 3 4 4 4 6 7 8 8 7 10 13 15 16 15 13 14 14 12 11 11 12 13
6 7 5 6 5 5 4 5 3 6 6 8 7 7 7 6 7 2 2 3 3 2 3 3 4 5 6 7 7 6 8 11 13 14 13 13 12 12 11 11 12 20 19 21
Wind_Direction
284 73 205 233 213 205 185 239 274 231 240 160 226 248 219 205 187 191 196 180 178 178 178 156 150 156 192 115 111 108 94 58 75 25 31 349 326 332 330 334 331 325 330 326
30 227 215 118 66 47 17 339 294 27 112 128 257 257 248 188 198 191 184 177 185 150 161 167 170 182 188 181 155 127 112 86 24 43 355 60 314 284 267 290 305 305 304 307
156 213 137 81 40 355 14 31 315 232 294 280 313 299 301 185 136 163 193 186 180 164 172 185 190 198 189 204 178 177 164 82 36 45 19 345 344 340 335 306 285 278 298 298
172 153 104 133 242 296 259 13 35 3 45 245 55 282 308 167 151 174 194 186 185 168 181 188 178 183 195 196 135 118 75 25 23 15 355 336 267 284 254 252 260 289 285 288
249 149 151 192 245 5 185 63 12 344 326 2 289 155 274 91 176 205 207 202 205 187 175 155 171 167 165 147 139 138 71 1 325 303 318 295 280 255 271 291 302 300 297 301
214 172 84 130 93 72 157 342 358 52 78 357 238 161 276 206 201 200 201 200 194 180 181 183 160 147 144 112 124 123 61 283 290 292 291 280 283 292 306 303 305 299 294 291
158 180 70 90 97 15 79 60 349 354 5 229 321 116 249 202 65 201 192 194 190 182 174 169 157 162 161 159 186 219 238 268 278 280 292 295 296 303 296 295 287 301 292 289
155 309 13 49 111 172 192 154 155 234 214 262 326 244 281 10 25 14 179 176 165 171 165 173 179 173 180 194 212 232 263 269 279 300 307 310 310 296 289 285 293 285 276 279
36 320 336 60 0 106 276 179 175 160 271 94 237 109 334 43 28 56 77 91 132 162 173 183 189 183 200 220 232 231 247 280 314 310 305 307 306 312 299 295 286 277 272 283
182 326 210 225 28 288 160 247 60 11 255 283 309 29 252 259 216 114 109 142 176 186 187 195 202 202 212 215 222 270 339 319 294 312 318 317 311 306 295 288 280 277 277 284
329 102 279 64 198 192 107 285 206 139 155 180 262 278 294 129 277 176 213 235 214 201 201 207 212 210 194 248 16 13 350 336 338 342 332 329 307 292 288 290 287 292 308 312
302 145 234 234 192 91 190 196 148 124 276 237 144 271 335 121 111 127 153 162 147 180 231 249 200 197 14 24 9 356 348 356 339 334 323 306 302 318 316 303 306 311 313 306
336 293 9 339 354 342 150 240 195 127 86 224 122 261 231 99 89 272 203 12 11 347 19 129 65 56 30 355 356 359 358 349 338 324 319 317 312 303 302 308 311 310 303 295
61 248 164 191 193 196 268 232 228 136 121 213 223 258 288 354 102 46 76 160 133 76 308 230 348 48 351 357 6 3 351 339 318 311 307 304 297 305 303 305 301 299 294 293
111 214 329 270 266 237 245 255 248 215 218 218 234 272 269 252 144 158 112 46 14 310 289 310 76 355 359 7 4 350 333 320 315 325 314 300 302 307 307 298 294 299 297 299
46 265 16 297 338 23 274 271 261 243 254 262 264 278 330 33 27 20 5 343 313 298 294 61 13 15 13 6 338 326 310 318 331 315 313 295 306 308 300 298 301 304 297 297
140 111 60 275 351 340 326 260 178 206 178 222 280 258 346 22 32 354 328 324 311 2 36 13 18 18 358 334 315 307 305 303 306 294 298 296 303 306 302 303 306 302 296 295
113 113 114 252 13 1 237 19 65 90 38 24 47 25 24 355 314 344 79 80 2 281 346 18 18 347 324 315 315 309 310 304 297 294 300 308 310 309 309 306 302 301 298 293
76 100 93 125 193 292 48 351 27 69 110 34 47 352 344 335 332 335 281 270 257 299 144 180 213 319 321 323 308 309 305 298 305 304 312 312 309 312 309 304 301 298 295 291
64 79 116 92 136 224 253 216 26 91 289 231 69 358 335 0 339 262 285 303 262 183 182 56 2 350 331 307 302 307 308 319 306 312 311 311 315 311 305 301 301 297 294 289
91 34 166 206 225 284 252 212 175 88 253 351 17 333 316 274 222 259 286 293 218 183 80 59 23 339 304 304 320 323 324 319 310 313 309 310 313 310 304 302 300 299 297 298
165 144 207 128 105 281 206 240 353 221 268 270 283 264 271 268 276 278 286 283 164 83 49 34 16 331 315 320 344 331 320 309 308 307 310 312 313 309 306 306 305 307 304 301
220 186 186 171 210 220 210 111 118 219 246 279 277 272 266 277 288 292 280 309 105 82 64 28 1 335 327 342 337 318 306 302 307 319 317 314 313 311 311 313 309 309 307 302
301 122 201 65 257 142 122 172 145 261 286 288 280 302 304 302 295 293 293 68 53 46 33 16 355 338 329 324 314 290 302 304 315 319 318 316 316 316 317 312 309 307 304 303
214 56 208 259 312 72 6 21 331 358 347 336 319 296 296 299 305 276 218 89 69 53 16 347 344 334 320 312 306 302 309 324 325 321 319 319 316 317 316 314 312 309 303 311
193 210 164 229 195 167 241 294 342 350 321 308 307 316 305 290 304 237 87 93 91 23 325 347 332 327 311 309 303 315 326 331 324 322 323 317 320 319 317 317 316 314 332 350